{"data":{"norad_id":56749,"epoch":"2026-05-25T04:59:26.264832Z","epoch_age_seconds":54211,"freshness":"FRESH","line1":"1 56749U 23072G   26145.20794288  .00027570  00000+0  50796-3 0  9993","line2":"2 56749  97.4935 352.1681 0005230  76.9733 283.2101 15.49113304166901","mean_motion":15.49113304,"eccentricity":0.000523,"inclination_deg":97.4935,"raan_deg":352.1681,"arg_perigee_deg":76.9733,"mean_anomaly_deg":283.2101,"bstar":0.00050796,"rev_number":16690,"period_min":92.956402626053,"perigee_km":415.76362422577,"apogee_km":422.87376288123,"semimajor_km":6797.4556935535,"source":"CELESTRAK","updated_at":"2026-05-25T13:37:59.662633Z"}}